Location: Unspecified
(44.0704°N, 88.6889°W)
Time: 14:29:03
(UTC+01:00)

CZ-3 Stage 3 - Pass Details

Date: 18 November 2019
Orbit: 406 x 34784 km, 30.6° (Epoch: 15 December)

Event Time Altitude Azimuth Distance (km) Brightness Sun altitude
Rises 01:43:33 0° 203° (SSW) 13,702 9.2 -24.5°
Reaches altitude 10° 08:50:10 10° 204° (SSW) 31,277 10.3 -53.2°
Maximum altitude 10:52:40 26° 172° (S) 7,146 7.4 -32.3°
Drops below altitude 10° 11:05:00 10° 121° (ESE) 4,598 7.1 -30.1°
Sets 11:07:49 0° 106° (ESE) 4,689 7.6 -29.6°
